sat.trackr.live / text

‹ back to catalog

BUGSAT-1 (TITA)

NORAD 40014 · 2014-033E

PAYLOAD ACTIVE UNKNOWN

§ Identity

Operator
Country
ARGN
Launch date
2014-06-19
Launch site
DLS
Launch vehicle
Mass (kg)
RCS (m²)
0.27

Purposes: tech_demo

External: N2YO · Heavens-Above · Gunter

§ Orbital elements

Epoch: 2026-09-09T04:37:16.682016Z

Period
94.97 min
Inclination
98.0428°
Eccentricity
0.0026055
Mean motion
15.16324783 rev/d
Perigee alt
499.0 km
Apogee alt
534.9 km
Semi-major
6,895.1 km
B*
2.9411e-4
RAAN
349.6990°
Arg perigee
252.9966°
Mean anomaly
106.8410°
Rev number
66,856

§ Raw data

BUGSAT-1 (TITA)1 40014U 14033E   26252.19255419  .00005673  00000+0  29411-3 0  99932 40014  98.0428 349.6990 0026055 252.9966 106.8410 15.16324783668560

JSON: /api/v1/satellites/40014 · /tle

For live sub-satellite position, see the globe view (requires WebGL).

§ Visibility from observer

Set your observer location to see the next 7 days of passes ≥ 10°. The values pass through the URL so the page stays shareable.

No JS? Fill the form by hand. The geolocation button needs JavaScript.

§ Radio — SatNOGS DB

ModeDescriptionDownlinkUplink
AFSK 437.445 AFSK 1200bps 437.445 MHz
GMSK 437.445 GMSK 9600bps 437.445 MHz
FSK AX.25 beacon 437.445 MHz

3 transmitters · refreshed weekly from db.satnogs.org